Torna al catalogo

FENGYUN 1C DEB

AttivoPO
NORAD 31187·DEBRIS·🇨🇳 China

Lanciato May 10, 1999 da Taiyuan Satellite Launch Center

Loading…

Prossimi Passaggi (prossime 24 ore)

TLE

AggiornatoSource: Space-Track

Epoca: Sep 14, 2026, 13:15 UTC

1 31187U 99025BJR 26257.55257155  .00012393  00000-0  16155-2 0  9990
2 31187  99.2166 159.3563 0197399 102.3498 259.9877 14.67982915731361

Traccia FENGYUN 1C DEB in tempo reale con AllMySat

Download on the App Store